www.pogodaiklimat.ru

Погода и климат >> Архив погоды >> Кувейт >> Экспериментальная ферма


ПОГОДА на Экспериментальной ферме

  • Прогноз погоды на Экспериментальной ферме
  • Монитор погоды на Экспериментальной ферме

АРХИВ ПОГОДЫ на Экспериментальной ферме

Время (UTC), дата Ветер
(напр.,м/с)
 
Видим.   Явления Облачность Т
(С)
Тd
(С)
f
(%)
Тe
(С)
Тes
(С)
Комфортность P
(гПа)
Po
(гПа)
Тmin
(С)
Tmax
(С)
R
(мм)
R24
(мм)
S
(см)
06 17.07 СЗ 4-8
{9}
н/о н/о +36.8 +6.9 16 +34 +34 очень
жарко
1000.2 997.9 236
09 17.07 СЗ 5-11
{13}
н/о н/о +41.4 +7.4 13 +39 +39 очень
жарко
999.4 997.1 421
12 17.07 СЗ 6-12
{14}
н/о н/о +42.8 +6.2 11 +40 +40 очень
жарко
998.4 996.1 323
15 17.07 СЗ 4-8
{13}
н/о н/о +40.2 +7.8 14 +38 +38 очень
жарко
998.6 996.3 59
18 17.07 СЗ 3-6
{13}
н/о н/о +37.9 +5.3 13 +35 +35 очень
жарко
1000.1 997.8
21 17.07 СЗ 3-6
{9}
н/о н/о +35.6 +7.2 17 +33 +33 жарко 999.6 997.3 +33.0 +43.1
00 18.07 СЗ 3-8
{9}
н/о н/о +34.0 +6.8 19 +32 +32 жарко 999.0 996.7
03 18.07 СЗ 4-7
{9}
н/о н/о +33.1 +6.1 19 +31 +31 жарко 999.4 997.1 8
06 18.07 СЗ 4-9
{10}
н/о н/о +38.0 +7.6 16 +36 +36 очень
жарко
999.5 997.2 278
09 18.07 СВ 4-14
{14}
н/о н/о +43.7 +7.3 11 +41 +41 опасность
перегрева
998.1 995.8 374
12 18.07 СЗ 4-11
{15}
н/о н/о +44.6 +7.0 11 +42 +42 опасность
перегрева
996.4 994.2 251
15 18.07 СЗ 4-9
{12}
н/о н/о +42.3 +6.6 12 +40 +40 очень
жарко
996.9 994.6 34
18 18.07 СЗ 4-8
{12}
н/о н/о +39.8 +7.3 14 +37 +37 очень
жарко
998.1 995.8
21 18.07 СЗ 2-6
{10}
н/о н/о +36.3 +10.3 21 +35 +35 очень
жарко
997.7 995.4 +32.8 +45.0
00 19.07 СЗ 3-9
{10}
н/о н/о +35.3 +8.1 19 +34 +34 очень
жарко
997.5 995.2
03 19.07 СЗ 3-6
{11}
н/о н/о +33.6 +9.1 22 +32 +32 жарко 998.7 996.4 10
06 19.07 СЗ 3-10
{11}
н/о н/о +39.4 +9.0 16 +38 +38 очень
жарко
999.0 996.7 214
09 19.07 СЗ 5-13
{14}
н/о н/о +42.1 +8.5 13 +40 +40 очень
жарко
998.7 996.4 241
12 19.07 СЗ 5-14
{14}
н/о н/о +43.3 +6.5 11 +41 +41 опасность
перегрева
997.5 995.2 216
15 19.07 СЗ 4-9
{13}
н/о н/о +40.7 +4.9 11 +38 +38 очень
жарко
997.9 995.6 43
18 19.07 СЗ 3-7
{13}
н/о н/о +38.6 +3.3 11 +35 +35 очень
жарко
999.5 997.2
21 19.07 СЗ 3-7
{9}
н/о н/о +36.3 +7.2 17 +34 +34 очень
жарко
999.6 997.3 +33.3 +43.7
00 20.07 СЗ 4-8
{11}
н/о н/о +34.0 +8.5 21 +33 +33 жарко 999.7 997.4
03 20.07 СЗ 4-9
{10}
н/о н/о +33.2 +10.5 25 +33 +33 жарко 1000.7 998.4 8
06 20.07 С 3-11
{11}
н/о н/о +37.0 +12.4 23 +37 +37 очень
жарко
1001.3 999.0 267
09 20.07 С 3-8
{11}
н/о н/о +41.3 +8.1 14 +39 +39 очень
жарко
1000.8 998.5 395
12 20.07 СЗ 4-10
{12}
н/о н/о +44.1 +8.3 12 +42 +42 опасность
перегрева
999.1 996.8 328
15 20.07 СЗ 2-6
{10}
н/о н/о +40.7 +9.0 15 +39 +39 очень
жарко
998.9 996.6 60
18 20.07 СЗ 2-5
{10}
н/о н/о +38.6 +7.5 15 +36 +36 очень
жарко
1000.1 997.8
21 20.07 С 2-5
{6}
н/о н/о +35.0 +7.8 19 +33 +33 жарко 1001.0 998.7 +33.0 +44.7
00 21.07 СЗ 2-4
{6}
н/о н/о +34.7 +4.9 16 +32 +32 жарко 1000.6 998.3
03 21.07 З 3-5
{6}
н/о н/о +33.5 +2.9 15 +31 +31 жарко 1001.0 998.7 8
06 21.07 СЗ 3-6
{7}
н/о н/о +38.5 +6.3 14 +36 +36 очень
жарко
1001.1 998.8 264
09 21.07 СЗ 3-8
{9}
н/о н/о +44.3 +6.4 10 +42 +42 опасность
перегрева
1000.0 997.7 406
12 21.07 СЗ 3-6
{10}
н/о н/о +45.4 +7.1 10 +43 +43 опасность
перегрева
997.9 995.7 331
15 21.07 СЗ 2-5
{8}
н/о н/о +42.5 +7.7 12 +40 +40 очень
жарко
997.4 995.1 55
18 21.07 З 3-5
{8}
н/о н/о +41.8 +5.9 11 +39 +39 очень
жарко
998.4 996.1
21 21.07 СЗ 2-4
{9}
н/о н/о +38.1 +8.0 16 +36 +36 очень
жарко
999.1 996.8 +32.5 +45.8
00 22.07 СЗ 3-6
{9}
н/о н/о +36.3 +10.0 20 +35 +35 очень
жарко
998.6 996.3
03 22.07 СЗ 3-6
{6}
н/о н/о +35.3 +9.7 21 +34 +34 очень
жарко
999.3 997.0 8
06 22.07 С 3-8
{8}
н/о н/о +40.1 +9.1 16 +38 +38 очень
жарко
999.1 996.8 261
09 22.07 СЗ 4-10
{12}
н/о н/о +45.3 +8.1 11 +43 +43 опасность
перегрева
997.9 995.7 402
12 22.07 СЗ 2-8
{12}
н/о н/о +46.7 +9.5 11 +45 +45 опасность
перегрева
996.2 994.0 330
15 22.07 СЗ 3-8
{10}
н/о н/о +43.0 +7.7 12 +41 +41 опасность
перегрева
996.1 993.8 56
18 22.07 СЗ 3-7
{10}
н/о н/о +40.4 +6.8 13 +38 +38 очень
жарко
997.0 994.7
21 22.07 СЗ 3-7
{8}
н/о н/о +37.8 +7.2 15 +35 +35 очень
жарко
997.0 994.7 +34.8 +47.0
00 23.07 Ю 2-5
{9}
н/о н/о +36.3 +6.5 16 +34 +34 очень
жарко
997.1 994.8
03 23.07 СЗ 3-6
{7}
н/о н/о +34.7 +7.6 19 +33 +33 жарко 997.5 995.2 8
06 23.07 СЗ 3-9
{9}
н/о н/о +39.9 +8.0 15 +38 +38 очень
жарко
997.6 995.3 262
09 23.07 С 3-11
{13}
н/о н/о +46.1 +6.6 10 +44 +44 опасность
перегрева
996.6 994.4 402
12 23.07 СЗ 5-13
{14}
н/о н/о +47.0 +3.5 7 +44 +44 опасность
перегрева
995.9 993.7 333
15 23.07 С 3-9
{13}
н/о н/о +42.7 +5.5 11 +40 +40 очень
жарко
996.4 994.1 59
18 23.07 СЗ 2-6
{13}
н/о н/о +40.1 +4.5 11 +37 +37 очень
жарко
998.1 995.8
21 23.07 С 1-4
{6}
н/о н/о +35.5 +5.3 15 +33 +33 жарко 998.1 995.8 +34.6 +47.2
00 24.07 СЗ 2-5
{6}
н/о н/о +34.8 +6.0 17 +33 +33 жарко 997.6 995.3
03 24.07 СЗ 1 н/о н/о +31.8 +9.5 25 +31 +31 жарко 998.6 996.3

 

Местоположение метеостанции Экспериментальная ферма (Кувейт): широта 29.29 долгота 47.94 высота над уровнем моря 21 м.

В архиве по умолчанию представлена погода на Экспериментальной ферме за последнюю неделю. Архивные данные за месяц целиком и за предыдущие месяцы, начиная с января 2011 года, Вы можете получить, выбрав интересующий диапазон дат из раскрывающегося списка и нажав кнопку "Ввод!".


*Определитесь, кто Вы:
робот инопланетянин человек

Внимание! Время в таблицах - всемирное. Для получения местного времени необходимо прибавить поправку, которая равна 3 ч.

Смотрите также архив погоды в соседних городах и на ближайших метеорологических станциях:

Погода в Эль-Кувейте (Кувейт) (8 км)
Погода в Кувейт Сити (Кувейт) (12 км)
Погода в Аль-Шуаиба (Кувейт) (17 км)
Погода в Сулайбии (Кувейт) (21 км)
Погода в Эль-Джахра (Кувейт) (26 км)
Погода Остров Файлака (Кувейт) (39 км)
Погода в Минагише (Кувейт) (47 км)
Погода на Метеостанции Jal Aliyah (Кувейт) (50 км)
Погода на Метеостанции Sabriyah (Кувейт) (52 км)
Погода в Порту Juluiah (Кувейт) (57 км)

Пояснения к столбцам:

Ветер - указаны скорость ветра в м/с - средняя за 10 мин, порывы в срок и между сроками (в фигурных скобках) и направление, откуда дует ветер: С - северный, СВ - северо-восточный, В - восточный, ЮВ - юго-восточный, Ю - южный, ЮЗ - юго-западный, З - западный, СЗ - северо-западный.
Видимость - горизонтальная дальность видимости в метрах или километрах. При видимости от 1 до 10 км при отсутствии осадков обычно наблюдается дымка, при ухудшении видимости до 1 км и менее - туман. В сухую погоду видимость может ухудшаться дымом, пылью или мглою.
Явления - указаны атмосферные явления, наблюдавшиеся в срок или в последний час перед сроком; фигурными скобками обозначены явления, наблюдавшиеся между сроками (за 1-3 часа до срока); квадратными скобками обозначены град или гололедные отложения с указанием их диаметра в мм.
Облачность - указаны через наклонную черту общая и нижняя облачность в баллах и высота нижней границы облаков в метрах; квадратными скобками обозначены формы облаков: Ci - перистые, Cs - перисто-слоистые, Cc - перисто-кучевые, Ac - высококучевые, As - высокослоистые, Sc - слоисто-кучевые, Ns - слоисто-дождевые, Cu - кучевые, Cb - кучево-дождевые. Подробнее классификацию облаков см. в Атласе облаков (PDF).
T - Температура воздуха - температура, измеренная на высоте 2 м над землей.
Td - Температура точки росы - температура, при понижении до которой содержащийся в воздухе водяной пар достигнет насыщения.
f - Относительная влажность воздуха - влажноcть воздуха, измеренная на высоте 2 м над землей.
Te - Эффективная температура - температура, которую ощущает одетый по сезону человек в тени. Характеристика душности погоды. При расчете учитывается влияние влажности воздуха и скорости ветра на теплоощущения человека.
Tes - Эффективная температура на солнце - температура, которую ощущает человек, с поправкой на солнечный нагрев. Характеристика знойности погоды. Зависит от высоты солнца над горизонтом, облачности и скорости ветра. Ночью, в пасмурную погоду, а также при ветре 12 м/с и более поправка равна нулю.
P - Атмосферное давление - приведенное к уровню моря атмосферное давление.
Po - Атмосферное давление - измеренное на уровне метеостанции атмосферное давление.
Tmin - Минимальная температура - минимум температуры воздуха на высоте 2 м над землей.
Tmax - Максимальная температура - максимум температуры воздуха на высоте 2 м над землей.
R - Количество осадков - Количество выпавших осадков за период времени, мм. При наведении курсора мыши на число - период времени, за который выпало указанное количество осадков.
R24 - Количество осадков - Количество выпавших осадков за 24 часа, мм.
S - Снежный покров - Высота снежного покрова, см. При наведении курсора мыши на число - состояние снежного покрова и степень покрытия местности в баллах.